Location: Alpine
(43.1636°N, 111.0180°W)
Time: 15:04:00
(UTC+00:00)

ISS - Visible Passes

Search period start: 22 January 2022 00:00
Search period end: 01 February 2022 00:00
Orbit: 413 x 422 km, 51.6° (Epoch: 22 January)

Date Brightness Start Highest point End Pass type
(mag) Time Alt. Az. Time Alt. Az. Time Alt. Az.
22 Jan -3.0 01:46:03 10° W 01:49:15 45° NNW 01:50:36 28° NNE visible
23 Jan -3.6 00:57:55 10° WSW 01:01:13 68° NNW 01:04:33 10° NE visible
23 Jan -1.5 02:35:46 10° WNW 02:37:34 20° NW 02:37:34 20° NW visible
24 Jan -2.2 01:47:23 10° WNW 01:50:15 26° NNW 01:51:34 20° NNE visible
25 Jan -2.5 00:59:02 10° W 01:02:06 33° NNW 01:05:10 10° NE visible
25 Jan -1.3 02:37:07 10° NW 02:38:27 16° NNW 02:38:27 16° NNW visible
26 Jan -1.9 01:48:47 10° NW 01:51:19 20° N 01:52:23 17° NNE visible
27 Jan -2.0 01:00:23 10° WNW 01:03:05 22° NNW 01:05:45 10° NE visible
27 Jan -1.3 02:38:05 10° NW 02:39:14 16° NNW 02:39:14 16° NNW visible
28 Jan -1.9 01:49:55 10° NW 01:52:23 19° N 01:53:09 18° NNE visible
29 Jan -1.8 01:01:38 10° NW 01:04:05 19° N 01:06:33 10° NE visible
29 Jan -1.5 02:38:41 10° NW 02:40:01 19° NNW 02:40:01 19° NNW visible
30 Jan -2.3 01:50:38 10° NW 01:53:22 23° NNE 01:54:00 22° NNE visible
31 Jan -2.0 01:02:31 10° NW 01:05:05 20° N 01:07:39 10° ENE visible
31 Jan -2.1 02:39:07 10° NW 02:40:57 28° NW 02:40:57 28° NW visible
